• In Austria
  • List of Countries
  • For 7 days
  • Water Temperature
  • Satellite Maps
  • Weather Map
  • News
  • Weather Widgets
  • user-avatar
    Login

    Hourly Weather Vratsa

    Today, 22 October, Monday

    Time Temperature Precipitation Wind Pressure Humidity
    00:00 +9°C° 0.1 mm 1 mps 712 mmHg 82%
    01:00 +9°C° 0.1 mm 1 mps 712 mmHg 82%
    02:00 +9°C° 0 mm 1 mps 712 mmHg 85%
    03:00 +9°C° 0 mm 1 mps 712 mmHg 85%
    04:00 +9°C° 0 mm 1 mps 712 mmHg 86%
    05:00 +9°C° 0 mm 1 mps 712 mmHg 86%
    06:00 +9°C° 0.1 mm 1 mps 713 mmHg 85%
    07:00 +9°C° 0.1 mm 1 mps 713 mmHg 85%
    08:00 +9°C° 0.1 mm 1 mps 713 mmHg 84%
    09:00 +11°C° 0 mm 1 mps 713 mmHg 77%
    10:00 +12°C° 0 mm 2 mps 713 mmHg 71%
    11:00 +14°C° 0 mm 2 mps 713 mmHg 64%
    12:00 +13°C° 0 mm 3 mps 713 mmHg 60%
    13:00 +14°C° 0 mm 3 mps 713 mmHg 56%
    14:00 +16°C° 0 mm 3 mps 712 mmHg 52%
    15:00 +14°C° 0 mm 3 mps 712 mmHg 53%
    16:00 +14°C° 0 mm 2 mps 712 mmHg 54%
    17:00 +14°C° 0 mm 2 mps 711 mmHg 55%
    18:00 +12°C° 0 mm 2 mps 711 mmHg 60%
    19:00 +10°C° 0 mm 2 mps 711 mmHg 64%
    20:00 +10°C° 0 mm 1 mps 711 mmHg 68%
    21:00 +9°C° 0 mm 1 mps 711 mmHg 70%
    22:00 +9°C° 0 mm 1 mps 712 mmHg 71%
    23:00 +8°C° 0 mm 0 mps 712 mmHg 72%

    Tomorrow, 23 October, Tuesday

    Time Temperature Precipitation Wind Pressure Humidity
    00:00 +7°C° 0 mm 0 mps 712 mmHg 73%
    01:00 +7°C° 0 mm 0 mps 712 mmHg 74%
    02:00 +7°C° 0 mm 0 mps 712 mmHg 75%
    03:00 +6°C° 0 mm 0 mps 712 mmHg 76%
    04:00 +6°C° 0 mm 0 mps 711 mmHg 77%
    05:00 +6°C° 0 mm 0 mps 711 mmHg 78%
    06:00 +7°C° 0 mm 1 mps 711 mmHg 76%
    07:00 +8°C° 0 mm 1 mps 712 mmHg 73%
    08:00 +8°C° 0 mm 1 mps 712 mmHg 71%
    09:00 +10°C° 0 mm 1 mps 712 mmHg 62%
    10:00 +13°C° 0 mm 1 mps 712 mmHg 53%
    11:00 +15°C° 0 mm 1 mps 712 mmHg 44%
    12:00 +15°C° 0 mm 1 mps 712 mmHg 41%
    13:00 +16°C° 0 mm 1 mps 711 mmHg 38%
    14:00 +18°C° 0 mm 1 mps 711 mmHg 35%
    15:00 +16°C° 0 mm 1 mps 710 mmHg 38%
    16:00 +15°C° 0 mm 1 mps 709 mmHg 41%
    17:00 +14°C° 0 mm 1 mps 709 mmHg 44%
    18:00 +13°C° 0 mm 2 mps 709 mmHg 49%
    19:00 +12°C° 0 mm 2 mps 709 mmHg 55%
    20:00 +9°C° 0 mm 2 mps 709 mmHg 61%
    21:00 +9°C° 0 mm 2 mps 709 mmHg 64%
    22:00 +9°C° 0 mm 2 mps 708 mmHg 68%
    23:00 +8°C° 0 mm 2 mps 708 mmHg 72%

    Day after tomorrow, 24 October, Wednesday

    Time Temperature Precipitation Wind Pressure Humidity
    00:00 +8°C° 0 mm 2 mps 708 mmHg 75%
    01:00 +8°C° 0 mm 3 mps 707 mmHg 77%
    02:00 +7°C° 0 mm 3 mps 707 mmHg 80%
    03:00 +7°C° 0 mm 3 mps 706 mmHg 81%
    04:00 +7°C° 0 mm 3 mps 706 mmHg 82%
    05:00 +5°C° 0 mm 3 mps 705 mmHg 84%
    06:00 +7°C° 0 mm 3 mps 705 mmHg 80%
    07:00 +7°C° 0 mm 3 mps 705 mmHg 76%
    08:00 +8°C° 0 mm 3 mps 705 mmHg 72%
    09:00 +10°C° 0 mm 4 mps 704 mmHg 63%
    10:00 +12°C° 0 mm 5 mps 704 mmHg 53%
    11:00 +14°C° 0 mm 6 mps 704 mmHg 43%
    12:00 +15°C° 0 mm 7 mps 703 mmHg 43%
    13:00 +15°C° 0 mm 7 mps 702 mmHg 42%
    14:00 +15°C° 0 mm 8 mps 702 mmHg 42%
    15:00 +15°C° 0 mm 8 mps 702 mmHg 44%
    16:00 +14°C° 0 mm 7 mps 701 mmHg 46%
    17:00 +14°C° 0 mm 7 mps 701 mmHg 48%
    18:00 +11°C° 1.1 mm 7 mps 702 mmHg 56%
    19:00 +10°C° 1.1 mm 7 mps 702 mmHg 63%
    20:00 +8°C° 1.1 mm 7 mps 703 mmHg 71%
    21:00 +7°C° 0.1 mm 6 mps 703 mmHg 68%
    22:00 +5°C° 0.1 mm 6 mps 704 mmHg 66%
    23:00 +5°C° 0.1 mm 5 mps 705 mmHg 64%

    25 October, Thursday

    Time Temperature Precipitation Wind Pressure Humidity
    00:00 +3°C° 0 mm 5 mps 705 mmHg 64%
    01:00 +2°C° 0 mm 5 mps 705 mmHg 64%
    02:00 +1°C° 0 mm 5 mps 705 mmHg 64%
    03:00 +1°C° 0 mm 5 mps 705 mmHg 65%
    04:00 +1°C° 0 mm 4 mps 706 mmHg 66%
    05:00 0°C° 0 mm 4 mps 706 mmHg 66%
    06:00 0°C° 0 mm 4 mps 706 mmHg 66%
    07:00 +1°C° 0 mm 4 mps 707 mmHg 65%
    08:00 +1°C° 0 mm 4 mps 707 mmHg 64%
    09:00 +2°C° 0 mm 5 mps 707 mmHg 56%
    10:00 +5°C° 0 mm 5 mps 708 mmHg 48%
    11:00 +7°C° 0 mm 6 mps 708 mmHg 41%
    12:00 +8°C° 0 mm 6 mps 708 mmHg 39%
    13:00 +9°C° 0 mm 6 mps 707 mmHg 38%
    14:00 +10°C° 0 mm 6 mps 707 mmHg 37%
    15:00 +10°C° 0 mm 5 mps 707 mmHg 41%
    16:00 +10°C° 0 mm 4 mps 707 mmHg 46%
    17:00 +10°C° 0 mm 3 mps 707 mmHg 50%
    18:00 +9°C° 0 mm 3 mps 707 mmHg 54%
    19:00 +8°C° 0 mm 3 mps 707 mmHg 59%
    20:00 +7°C° 0 mm 4 mps 707 mmHg 63%
    21:00 +7°C° 0 mm 4 mps 707 mmHg 65%
    22:00 +7°C° 0 mm 4 mps 707 mmHg 67%
    23:00 +7°C° 0 mm 4 mps 707 mmHg 69%

    26 October, Friday

    Time Temperature Precipitation Wind Pressure Humidity
    00:00 +7°C° 0 mm 4 mps 707 mmHg 70%
    01:00 +8°C° 0 mm 3 mps 707 mmHg 70%
    02:00 +8°C° 0 mm 3 mps 707 mmHg 71%
    03:00 +8°C° 0 mm 3 mps 707 mmHg 73%
    04:00 +7°C° 0 mm 3 mps 707 mmHg 75%
    05:00 +7°C° 0 mm 3 mps 707 mmHg 77%
    06:00 +7°C° 0 mm 3 mps 708 mmHg 75%
    07:00 +8°C° 0 mm 3 mps 708 mmHg 73%
    08:00 +8°C° 0 mm 2 mps 708 mmHg 71%
    09:00 +11°C° 0 mm 3 mps 709 mmHg 62%
    10:00 +13°C° 0 mm 3 mps 709 mmHg 53%
    11:00 +17°C° 0 mm 3 mps 709 mmHg 44%
    12:00 +17°C° 0 mm 3 mps 709 mmHg 41%
    13:00 +18°C° 0 mm 3 mps 709 mmHg 38%
    14:00 +19°C° 0 mm 2 mps 709 mmHg 34%
    15:00 +18°C° 0 mm 2 mps 708 mmHg 37%
    16:00 +18°C° 0 mm 1 mps 708 mmHg 40%
    17:00 +16°C° 0 mm 1 mps 708 mmHg 42%
    18:00 +15°C° 0 mm 1 mps 708 mmHg 44%
    19:00 +14°C° 0 mm 1 mps 708 mmHg 46%
    20:00 +13°C° 0 mm 2 mps 708 mmHg 48%
    21:00 +12°C° 0 mm 2 mps 708 mmHg 48%
    22:00 +12°C° 0 mm 2 mps 709 mmHg 48%
    23:00 +12°C° 0 mm 2 mps 709 mmHg 48%

    27 October, Saturday

    Time Temperature Precipitation Wind Pressure Humidity
    00:00 +10°C° 0 mm 2 mps 709 mmHg 48%
    01:00 +10°C° 0 mm 2 mps 708 mmHg 48%
    02:00 +10°C° 0 mm 2 mps 708 mmHg 48%
    03:00 +10°C° 0 mm 2 mps 708 mmHg 49%
    04:00 +9°C° 0 mm 2 mps 708 mmHg 50%
    05:00 +9°C° 0 mm 2 mps 708 mmHg 51%
    06:00 +10°C° 0 mm 2 mps 709 mmHg 52%
    07:00 +10°C° 0 mm 2 mps 709 mmHg 52%
    08:00 +10°C° 0 mm 2 mps 709 mmHg 53%
    09:00 +14°C° 0 mm 2 mps 709 mmHg 47%
    10:00 +16°C° 0 mm 2 mps 709 mmHg 41%
    11:00 +19°C° 0 mm 2 mps 709 mmHg 35%
    12:00 +20°C° 0 mm 2 mps 709 mmHg 33%
    13:00 +21°C° 0 mm 2 mps 708 mmHg 30%
    14:00 +23°C° 0 mm 2 mps 708 mmHg 27%
    15:00 +21°C° 0 mm 2 mps 708 mmHg 31%
    16:00 +20°C° 0 mm 2 mps 707 mmHg 34%
    17:00 +19°C° 0 mm 2 mps 707 mmHg 37%
    18:00 +17°C° 0 mm 2 mps 707 mmHg 41%
    19:00 +16°C° 0 mm 2 mps 707 mmHg 44%
    20:00 +15°C° 0 mm 2 mps 707 mmHg 48%
    21:00 +14°C° 0 mm 2 mps 707 mmHg 50%
    22:00 +14°C° 0 mm 2 mps 707 mmHg 53%
    23:00 +14°C° 0 mm 2 mps 707 mmHg 55%

    28 October, Sunday

    Time Temperature Precipitation Wind Pressure Humidity
    00:00 +13°C° 0 mm 2 mps 707 mmHg 58%
    01:00 +13°C° 0 mm 2 mps 707 mmHg 61%
    02:00 +13°C° 0 mm 2 mps 707 mmHg 63%
    03:00 +13°C° 0 mm 2 mps 707 mmHg 65%
    04:00 +13°C° 0 mm 2 mps 707 mmHg 67%
    05:00 +12°C° 0 mm 2 mps 707 mmHg 68%
    06:00 +13°C° 0 mm 2 mps 707 mmHg 67%
    07:00 +13°C° 0 mm 2 mps 707 mmHg 66%
    08:00 +13°C° 0 mm 2 mps 708 mmHg 65%
    09:00 +16°C° 0 mm 2 mps 708 mmHg 57%
    10:00 +18°C° 0 mm 2 mps 708 mmHg 49%
    11:00 +20°C° 0 mm 2 mps 709 mmHg 41%
    12:00 +21°C° 0 mm 2 mps 708 mmHg 38%
    13:00 +23°C° 0 mm 2 mps 708 mmHg 34%
    14:00 +24°C° 0 mm 2 mps 708 mmHg 30%
    15:00 +21°C° 0 mm 2 mps 708 mmHg 34%
    16:00 +20°C° 0 mm 2 mps 708 mmHg 38%
    17:00 +18°C° 0 mm 2 mps 707 mmHg 42%
    18:00 +18°C° 0 mm 2 mps 708 mmHg 45%
    19:00 +18°C° 0 mm 1 mps 708 mmHg 47%
    20:00 +16°C° 0 mm 1 mps 708 mmHg 49%
    21:00 +16°C° 0 mm 1 mps 708 mmHg 51%
    22:00 +15°C° 0 mm 1 mps 708 mmHg 52%
    23:00 +15°C° 0 mm 1 mps 708 mmHg 54%
    Show more